Weather in Sharik

Russia / Ryazan Oblast     53°53′05″N   42°05′55″E
temp.,
°C
wind,
m/s
gust,
m/s
humid.,
%
clouds,
%
prec.,
mm/h
press.,
hPa
HPBL,
m
1 march, mon
mon100:00−11nne129680 0.0 102021
03:00−13nnw229675 0.1 102221
06:00−13nnw229770 0.0 102320
09:00−11nnw129468 0.0 1025114
12:00−7wnw238784 0.0 1025333
15:00−4wsw359090 0.0 1024396
18:00−7sw489596 0.0 1022214
21:00−4wsw4119596 0.1 1020593
2 march, tue
tue200:00−2wsw61293100 0.1 1017503
03:00−1wsw61393100 0.3 1014550
06:00+1wsw61293100 0.1 1011628
09:00+1w61298100 0.3 1009676
12:00+1w61199100 0.4 1006623
15:00+1wnw4997100 0.6 1006663
18:00−1wnw389284 0.3 1006191
21:00−3nw399290 0.4 1007218
3 march, wed
wed300:00−5wnw4993100 0.0 1008213
03:00−4wnw4119586 0.1 1008353
06:00−4nw6129299 0.3 1009649
09:00−6nnw6138771 0.3 1011695
12:00−4nw61086100 0.1 1012796
15:00−3nw51080100 0.1 1013962
18:00−5w389136 0.0 1013195
21:00−4w4109666 0.1 1014389
4 march, thu
thu400:00−4w5129498 0.1 1013391
03:00−4w5119284 0.1 1011363
06:00−4sw5129366 0.0 1010453
09:00−3sw7138883 0.0 1007626
12:000sw81688100 0.0 1004832
15:00+1wsw81585100 0.0 10021120
18:000wsw71581100 0.0 9991003
21:000wsw71497100 0.1 999893
5 march, fri
fri500:000w71397100 0.3 999972
03:00−3wnw41090100 0.5 1003359
06:00−7nw369331 0.0 1006138
09:00−6nnw249019 0.0 1009176
12:00−3nw22823 0.0 1011418
15:00−3wnw238242 0.0 1012586
18:00−6wnw119096 0.0 101321
21:00−7nne009182 0.0 101421